• In Deutschland
  • Länderverzeichnis
  • Für 7 Tage
  • Wassertemperatur
  • Satellitenkarten
  • Wetterkarte
  • Widgets
  • user-avatar
    Anmelden

    Stündliche Wetter Kulmbach

    Heute, 18 Juli, Mittwoch

    Zeit Temperatur Niederschläge Wind Luftdruck Luftfeuchtigkeit
    00:00 +18°C° 0,1 mm 2 m/S 731 mmHg 82%
    01:00 +17°C° 0 mm 2 m/S 732 mmHg 84%
    02:00 +17°C° 0,1 mm 2 m/S 732 mmHg 87%
    03:00 +16°C° 0,1 mm 1 m/S 732 mmHg 90%
    04:00 +16°C° 0,1 mm 1 m/S 732 mmHg 92%
    05:00 +17°C° 0 mm 2 m/S 732 mmHg 89%
    06:00 +18°C° 0 mm 2 m/S 732 mmHg 86%
    07:00 +20°C° 0 mm 2 m/S 733 mmHg 78%
    08:00 +21°C° 0,1 mm 2 m/S 733 mmHg 72%
    09:00 +22°C° 0,1 mm 3 m/S 733 mmHg 65%
    10:00 +25°C° 0,1 mm 3 m/S 733 mmHg 58%
    11:00 +25°C° 0 mm 3 m/S 733 mmHg 54%
    12:00 +26°C° 0 mm 3 m/S 733 mmHg 50%
    13:00 +27°C° 0 mm 4 m/S 733 mmHg 45%
    14:00 +27°C° 0 mm 4 m/S 733 mmHg 45%
    15:00 +27°C° 0 mm 4 m/S 733 mmHg 45%
    16:00 +27°C° 0 mm 4 m/S 733 mmHg 45%
    17:00 +26°C° 0 mm 3 m/S 733 mmHg 52%
    18:00 +24°C° 0 mm 3 m/S 733 mmHg 58%
    19:00 +23°C° 0 mm 2 m/S 733 mmHg 65%
    20:00 +20°C° 0 mm 2 m/S 733 mmHg 71%
    21:00 +18°C° 0 mm 2 m/S 733 mmHg 78%
    22:00 +16°C° 0 mm 1 m/S 734 mmHg 84%
    23:00 +16°C° 0 mm 1 m/S 734 mmHg 87%

    Morgen, 19 Juli, Donnerstag

    Zeit Temperatur Niederschläge Wind Luftdruck Luftfeuchtigkeit
    00:00 +15°C° 0 mm 1 m/S 734 mmHg 89%
    01:00 +15°C° 0 mm 1 m/S 734 mmHg 91%
    02:00 +14°C° 0 mm 1 m/S 734 mmHg 91%
    03:00 +14°C° 0 mm 1 m/S 734 mmHg 92%
    04:00 +13°C° 0 mm 1 m/S 734 mmHg 92%
    05:00 +15°C° 0 mm 1 m/S 734 mmHg 86%
    06:00 +16°C° 0 mm 1 m/S 734 mmHg 80%
    07:00 +19°C° 0 mm 1 m/S 734 mmHg 73%
    08:00 +21°C° 0 mm 1 m/S 735 mmHg 66%
    09:00 +23°C° 0 mm 1 m/S 735 mmHg 58%
    10:00 +24°C° 0 mm 1 m/S 735 mmHg 51%
    11:00 +25°C° 0 mm 1 m/S 735 mmHg 47%
    12:00 +26°C° 0 mm 2 m/S 735 mmHg 43%
    13:00 +27°C° 0 mm 2 m/S 734 mmHg 39%
    14:00 +27°C° 0 mm 2 m/S 734 mmHg 39%
    15:00 +27°C° 0 mm 2 m/S 734 mmHg 39%
    16:00 +27°C° 0 mm 2 m/S 734 mmHg 39%
    17:00 +26°C° 0 mm 2 m/S 734 mmHg 46%
    18:00 +24°C° 0 mm 2 m/S 733 mmHg 53%
    19:00 +23°C° 0 mm 2 m/S 733 mmHg 60%
    20:00 +20°C° 0 mm 2 m/S 733 mmHg 64%
    21:00 +19°C° 0 mm 1 m/S 733 mmHg 68%
    22:00 +16°C° 0 mm 1 m/S 734 mmHg 72%
    23:00 +16°C° 0 mm 1 m/S 733 mmHg 73%

    übermorgen, 20 Juli, Freitag

    Zeit Temperatur Niederschläge Wind Luftdruck Luftfeuchtigkeit
    00:00 +15°C° 0 mm 1 m/S 733 mmHg 73%
    01:00 +15°C° 0 mm 1 m/S 733 mmHg 73%
    02:00 +14°C° 0 mm 1 m/S 733 mmHg 74%
    03:00 +14°C° 0 mm 1 m/S 733 mmHg 75%
    04:00 +14°C° 0 mm 1 m/S 733 mmHg 76%
    05:00 +15°C° 0 mm 1 m/S 733 mmHg 72%
    06:00 +18°C° 0 mm 1 m/S 733 mmHg 68%
    07:00 +20°C° 0 mm 1 m/S 733 mmHg 63%
    08:00 +22°C° 0 mm 1 m/S 733 mmHg 57%
    09:00 +24°C° 0 mm 1 m/S 733 mmHg 51%
    10:00 +26°C° 0 mm 1 m/S 733 mmHg 44%
    11:00 +27°C° 0 mm 1 m/S 733 mmHg 42%
    12:00 +28°C° 0 mm 1 m/S 732 mmHg 39%
    13:00 +30°C° 0 mm 1 m/S 732 mmHg 36%
    14:00 +30°C° 0 mm 1 m/S 732 mmHg 36%
    15:00 +30°C° 0 mm 1 m/S 731 mmHg 36%
    16:00 +30°C° 0 mm 1 m/S 731 mmHg 36%
    17:00 +28°C° 0 mm 1 m/S 730 mmHg 43%
    18:00 +27°C° 0 mm 1 m/S 730 mmHg 50%
    19:00 +25°C° 0 mm 1 m/S 730 mmHg 58%
    20:00 +24°C° 0 mm 1 m/S 729 mmHg 62%
    21:00 +22°C° 0 mm 1 m/S 729 mmHg 67%
    22:00 +20°C° 0 mm 1 m/S 729 mmHg 72%
    23:00 +20°C° 0,3 mm 1 m/S 729 mmHg 77%

    21 Juli, Samstag

    Zeit Temperatur Niederschläge Wind Luftdruck Luftfeuchtigkeit
    00:00 +19°C° 0,3 mm 1 m/S 729 mmHg 81%
    01:00 +18°C° 0,3 mm 1 m/S 729 mmHg 86%
    02:00 +18°C° 0,5 mm 1 m/S 729 mmHg 87%
    03:00 +18°C° 0,5 mm 1 m/S 728 mmHg 89%
    04:00 +18°C° 0,5 mm 1 m/S 728 mmHg 90%
    05:00 +19°C° 0,6 mm 1 m/S 728 mmHg 90%
    06:00 +19°C° 0,6 mm 1 m/S 728 mmHg 90%
    07:00 +20°C° 0,6 mm 1 m/S 728 mmHg 90%
    08:00 +21°C° 0,9 mm 1 m/S 728 mmHg 87%
    09:00 +21°C° 0,9 mm 2 m/S 728 mmHg 83%
    10:00 +24°C° 0,9 mm 2 m/S 729 mmHg 80%
    11:00 +24°C° 1,2 mm 2 m/S 728 mmHg 78%
    12:00 +25°C° 1,2 mm 2 m/S 728 mmHg 75%
    13:00 +25°C° 1,2 mm 2 m/S 728 mmHg 73%
    14:00 +25°C° 1,1 mm 3 m/S 728 mmHg 75%
    15:00 +24°C° 1,1 mm 3 m/S 728 mmHg 78%
    16:00 +24°C° 1,1 mm 3 m/S 728 mmHg 80%
    17:00 +22°C° 0,6 mm 3 m/S 728 mmHg 84%
    18:00 +21°C° 0,6 mm 3 m/S 728 mmHg 87%
    19:00 +21°C° 0,6 mm 2 m/S 728 mmHg 90%
    20:00 +20°C° 0,2 mm 2 m/S 728 mmHg 91%
    21:00 +19°C° 0,2 mm 2 m/S 728 mmHg 93%
    22:00 +18°C° 0,2 mm 2 m/S 728 mmHg 95%
    23:00 +17°C° 0 mm 2 m/S 729 mmHg 95%

    22 Juli, Sonntag

    Zeit Temperatur Niederschläge Wind Luftdruck Luftfeuchtigkeit
    00:00 +17°C° 0 mm 2 m/S 729 mmHg 95%
    01:00 +16°C° 0 mm 2 m/S 729 mmHg 96%
    02:00 +16°C° 0 mm 2 m/S 729 mmHg 96%
    03:00 +15°C° 0 mm 2 m/S 729 mmHg 96%
    04:00 +15°C° 0 mm 2 m/S 729 mmHg 97%
    05:00 +15°C° 0 mm 2 m/S 730 mmHg 95%
    06:00 +16°C° 0 mm 2 m/S 730 mmHg 92%
    07:00 +17°C° 0 mm 3 m/S 730 mmHg 90%
    08:00 +17°C° 0 mm 3 m/S 730 mmHg 86%
    09:00 +18°C° 0 mm 3 m/S 731 mmHg 81%
    10:00 +19°C° 0 mm 4 m/S 731 mmHg 77%
    11:00 +20°C° 0,1 mm 4 m/S 731 mmHg 72%
    12:00 +21°C° 0,1 mm 4 m/S 731 mmHg 67%
    13:00 +22°C° 0,1 mm 4 m/S 731 mmHg 62%
    14:00 +22°C° 0,2 mm 4 m/S 731 mmHg 62%
    15:00 +22°C° 0,2 mm 4 m/S 731 mmHg 63%
    16:00 +22°C° 0,2 mm 4 m/S 731 mmHg 64%
    17:00 +21°C° 0,2 mm 3 m/S 731 mmHg 70%
    18:00 +20°C° 0,2 mm 3 m/S 732 mmHg 76%
    19:00 +19°C° 0,2 mm 2 m/S 732 mmHg 81%
    20:00 +18°C° 0 mm 2 m/S 732 mmHg 86%
    21:00 +18°C° 0 mm 1 m/S 733 mmHg 90%
    22:00 +15°C° 0 mm 1 m/S 733 mmHg 94%
    23:00 +15°C° 0 mm 1 m/S 733 mmHg 94%

    23 Juli, Montag

    Zeit Temperatur Niederschläge Wind Luftdruck Luftfeuchtigkeit
    00:00 +14°C° 0 mm 1 m/S 733 mmHg 95%
    01:00 +14°C° 0 mm 1 m/S 733 mmHg 96%
    02:00 +14°C° 0 mm 1 m/S 733 mmHg 96%
    03:00 +13°C° 0 mm 1 m/S 733 mmHg 96%
    04:00 +13°C° 0 mm 1 m/S 734 mmHg 96%
    05:00 +14°C° 0 mm 1 m/S 734 mmHg 92%
    06:00 +15°C° 0 mm 1 m/S 734 mmHg 89%
    07:00 +16°C° 0 mm 1 m/S 734 mmHg 85%
    08:00 +19°C° 0 mm 1 m/S 734 mmHg 78%
    09:00 +21°C° 0 mm 1 m/S 734 mmHg 70%
    10:00 +23°C° 0 mm 1 m/S 734 mmHg 62%
    11:00 +24°C° 0 mm 1 m/S 734 mmHg 59%
    12:00 +25°C° 0 mm 1 m/S 734 mmHg 56%
    13:00 +26°C° 0 mm 1 m/S 734 mmHg 53%
    14:00 +26°C° 0 mm 1 m/S 734 mmHg 52%
    15:00 +26°C° 0 mm 1 m/S 733 mmHg 51%
    16:00 +27°C° 0 mm 1 m/S 733 mmHg 50%
    17:00 +25°C° 0 mm 1 m/S 733 mmHg 56%
    18:00 +24°C° 0 mm 1 m/S 733 mmHg 62%
    19:00 +23°C° 0 mm 1 m/S 733 mmHg 69%
    20:00 +22°C° 0 mm 1 m/S 733 mmHg 74%
    21:00 +20°C° 0 mm 1 m/S 733 mmHg 80%
    22:00 +18°C° 0 mm 1 m/S 733 mmHg 86%
    23:00 +18°C° 0 mm 1 m/S 733 mmHg 88%
    Mehr zeigen